﻿測定場所 (Monitoring sites),日付 (Measurement date),時間 (Measurement time),線量率 最大値 (max) μGy/h,線量率 最小値 (min) μGy/h,線量率 平均値 (average) μGy/h,
江戸川 (Edogawa),2015-03-15,23:01～24:00,0.0683,0.0622,0.0651,
江戸川 (Edogawa),2015-03-15,22:01～23:00,0.0683,0.0629,0.0656,
江戸川 (Edogawa),2015-03-15,21:01～22:00,0.0683,0.0622,0.0657,
江戸川 (Edogawa),2015-03-15,20:01～21:00,0.0691,0.0625,0.0656,
江戸川 (Edogawa),2015-03-15,19:01～20:00,0.0700,0.0611,0.0655,
江戸川 (Edogawa),2015-03-15,18:01～19:00,0.0705,0.0625,0.0656,
江戸川 (Edogawa),2015-03-15,17:01～18:00,0.0692,0.0615,0.0656,
江戸川 (Edogawa),2015-03-15,16:01～17:00,0.0708,0.0624,0.0658,
江戸川 (Edogawa),2015-03-15,15:01～16:00,0.0706,0.0629,0.0660,
江戸川 (Edogawa),2015-03-15,14:01～15:00,0.0709,0.0616,0.0660,
江戸川 (Edogawa),2015-03-15,13:01～14:00,0.0686,0.0625,0.0656,
江戸川 (Edogawa),2015-03-15,12:01～13:00,0.0691,0.0623,0.0654,
江戸川 (Edogawa),2015-03-15,11:01～12:00,0.0693,0.0613,0.0651,
江戸川 (Edogawa),2015-03-15,10:01～11:00,0.0685,0.0625,0.0654,
江戸川 (Edogawa),2015-03-15,09:01～10:00,0.0677,0.0594,0.0651,
江戸川 (Edogawa),2015-03-15,08:01～09:00,0.0685,0.0611,0.0652,
江戸川 (Edogawa),2015-03-15,07:01～08:00,0.0692,0.0608,0.0652,
江戸川 (Edogawa),2015-03-15,06:01～07:00,0.0691,0.0622,0.0649,
江戸川 (Edogawa),2015-03-15,05:01～06:00,0.0695,0.0614,0.0650,
江戸川 (Edogawa),2015-03-15,04:01～05:00,0.0713,0.0609,0.0651,
江戸川 (Edogawa),2015-03-15,03:01～04:00,0.0684,0.0614,0.0650,
江戸川 (Edogawa),2015-03-15,02:01～03:00,0.0684,0.0620,0.0653,
江戸川 (Edogawa),2015-03-15,01:01～02:00,0.0681,0.0610,0.0655,
江戸川 (Edogawa),2015-03-15,00:01～01:00,0.0687,0.0619,0.0651,
江戸川 (Edogawa),2015-03-14,23:01～24:00,0.0681,0.0614,0.0652,
江戸川 (Edogawa),2015-03-14,22:01～23:00,0.0690,0.0623,0.0655,
江戸川 (Edogawa),2015-03-14,21:01～22:00,0.0687,0.0619,0.0647,
江戸川 (Edogawa),2015-03-14,20:01～21:00,0.0694,0.0619,0.0652,
江戸川 (Edogawa),2015-03-14,19:01～20:00,0.0680,0.0617,0.0653,
江戸川 (Edogawa),2015-03-14,18:01～19:00,0.0688,0.0627,0.0654,
江戸川 (Edogawa),2015-03-14,17:01～18:00,0.0698,0.0614,0.0655,
江戸川 (Edogawa),2015-03-14,16:01～17:00,0.0686,0.0627,0.0655,
江戸川 (Edogawa),2015-03-14,15:01～16:00,0.0706,0.0606,0.0663,
江戸川 (Edogawa),2015-03-14,14:01～15:00,0.0693,0.0636,0.0666,
江戸川 (Edogawa),2015-03-14,13:01～14:00,0.0700,0.0634,0.0669,
江戸川 (Edogawa),2015-03-14,12:01～13:00,0.0701,0.0636,0.0667,
江戸川 (Edogawa),2015-03-14,11:01～12:00,0.0689,0.0616,0.0661,
江戸川 (Edogawa),2015-03-14,10:01～11:00,0.0698,0.0629,0.0661,
江戸川 (Edogawa),2015-03-14,09:01～10:00,0.0689,0.0621,0.0660,
江戸川 (Edogawa),2015-03-14,08:01～09:00,0.0716,0.0629,0.0663,
江戸川 (Edogawa),2015-03-14,07:01～08:00,0.0682,0.0628,0.0656,
江戸川 (Edogawa),2015-03-14,06:01～07:00,0.0684,0.0622,0.0652,
江戸川 (Edogawa),2015-03-14,05:01～06:00,0.0672,0.0603,0.0647,
江戸川 (Edogawa),2015-03-14,04:01～05:00,0.0683,0.0622,0.0653,
江戸川 (Edogawa),2015-03-14,03:01～04:00,0.0688,0.0627,0.0655,
江戸川 (Edogawa),2015-03-14,02:01～03:00,0.0713,0.0618,0.0657,
江戸川 (Edogawa),2015-03-14,01:01～02:00,0.0698,0.0629,0.0658,
江戸川 (Edogawa),2015-03-14,00:01～01:00,0.0691,0.0617,0.0652,
江戸川 (Edogawa),2015-03-13,23:01～24:00,0.0685,0.0617,0.0653,
江戸川 (Edogawa),2015-03-13,22:01～23:00,0.0682,0.0620,0.0653,
江戸川 (Edogawa),2015-03-13,21:01～22:00,0.0688,0.0618,0.0654,
江戸川 (Edogawa),2015-03-13,20:01～21:00,0.0691,0.0627,0.0655,
江戸川 (Edogawa),2015-03-13,19:01～20:00,0.0692,0.0618,0.0657,
江戸川 (Edogawa),2015-03-13,18:01～19:00,0.0709,0.0626,0.0662,
江戸川 (Edogawa),2015-03-13,17:01～18:00,0.0687,0.0620,0.0656,
江戸川 (Edogawa),2015-03-13,16:01～17:00,0.0694,0.0628,0.0660,
江戸川 (Edogawa),2015-03-13,15:01～16:00,0.0695,0.0620,0.0656,
江戸川 (Edogawa),2015-03-13,14:01～15:00,0.0683,0.0619,0.0655,
江戸川 (Edogawa),2015-03-13,13:01～14:00,0.0685,0.0627,0.0653,
江戸川 (Edogawa),2015-03-13,12:01～13:00,0.0706,0.0621,0.0653,
江戸川 (Edogawa),2015-03-13,11:01～12:00,0.0680,0.0618,0.0647,
江戸川 (Edogawa),2015-03-13,10:01～11:00,0.0704,0.0613,0.0649,
江戸川 (Edogawa),2015-03-13,09:01～10:00,0.0689,0.0620,0.0652,
江戸川 (Edogawa),2015-03-13,08:01～09:00,0.0679,0.0606,0.0643,
江戸川 (Edogawa),2015-03-13,07:01～08:00,0.0691,0.0609,0.0641,
江戸川 (Edogawa),2015-03-13,06:01～07:00,0.0676,0.0608,0.0640,
江戸川 (Edogawa),2015-03-13,05:01～06:00,0.0678,0.0589,0.0635,
江戸川 (Edogawa),2015-03-13,04:01～05:00,0.0674,0.0607,0.0639,
江戸川 (Edogawa),2015-03-13,03:01～04:00,0.0692,0.0603,0.0639,
江戸川 (Edogawa),2015-03-13,02:01～03:00,0.0683,0.0607,0.0643,
江戸川 (Edogawa),2015-03-13,01:01～02:00,0.0693,0.0598,0.0640,
江戸川 (Edogawa),2015-03-13,00:01～01:00,0.0677,0.0607,0.0641,
江戸川 (Edogawa),2015-03-12,23:01～24:00,0.0680,0.0589,0.0644,
江戸川 (Edogawa),2015-03-12,22:01～23:00,0.0688,0.0615,0.0648,
江戸川 (Edogawa),2015-03-12,21:01～22:00,0.0669,0.0612,0.0645,
江戸川 (Edogawa),2015-03-12,20:01～21:00,0.0672,0.0609,0.0645,
江戸川 (Edogawa),2015-03-12,19:01～20:00,0.0690,0.0614,0.0647,
江戸川 (Edogawa),2015-03-12,18:01～19:00,0.0693,0.0620,0.0651,
江戸川 (Edogawa),2015-03-12,17:01～18:00,0.0697,0.0620,0.0648,
江戸川 (Edogawa),2015-03-12,16:01～17:00,0.0706,0.0622,0.0650,
江戸川 (Edogawa),2015-03-12,15:01～16:00,0.0689,0.0613,0.0645,
江戸川 (Edogawa),2015-03-12,14:01～15:00,0.0691,0.0622,0.0654,
江戸川 (Edogawa),2015-03-12,13:01～14:00,0.0691,0.0615,0.0652,
江戸川 (Edogawa),2015-03-12,12:01～13:00,0.0701,0.0620,0.0654,
江戸川 (Edogawa),2015-03-12,11:01～12:00,0.0695,0.0624,0.0655,
江戸川 (Edogawa),2015-03-12,10:01～11:00,0.0697,0.0616,0.0653,
江戸川 (Edogawa),2015-03-12,09:01～10:00,0.0680,0.0621,0.0650,
江戸川 (Edogawa),2015-03-12,08:01～09:00,0.0683,0.0623,0.0645,
江戸川 (Edogawa),2015-03-12,07:01～08:00,0.0671,0.0601,0.0640,
江戸川 (Edogawa),2015-03-12,06:01～07:00,0.0682,0.0599,0.0643,
江戸川 (Edogawa),2015-03-12,05:01～06:00,0.0674,0.0603,0.0636,
江戸川 (Edogawa),2015-03-12,04:01～05:00,0.0686,0.0604,0.0640,
江戸川 (Edogawa),2015-03-12,03:01～04:00,0.0671,0.0613,0.0642,
江戸川 (Edogawa),2015-03-12,02:01～03:00,0.0667,0.0597,0.0641,
江戸川 (Edogawa),2015-03-12,01:01～02:00,0.0673,0.0604,0.0639,
江戸川 (Edogawa),2015-03-12,00:01～01:00,0.0671,0.0605,0.0642,
江戸川 (Edogawa),2015-03-11,23:01～24:00,0.0685,0.0615,0.0641,
江戸川 (Edogawa),2015-03-11,22:01～23:00,0.0680,0.0604,0.0642,
江戸川 (Edogawa),2015-03-11,21:01～22:00,0.0691,0.0597,0.0647,
江戸川 (Edogawa),2015-03-11,20:01～21:00,0.0667,0.0617,0.0642,
江戸川 (Edogawa),2015-03-11,19:01～20:00,0.0693,0.0612,0.0643,
江戸川 (Edogawa),2015-03-11,18:01～19:00,0.0683,0.0605,0.0646,
江戸川 (Edogawa),2015-03-11,17:01～18:00,0.0676,0.0614,0.0646,
江戸川 (Edogawa),2015-03-11,16:01～17:00,0.0670,0.0594,0.0645,
江戸川 (Edogawa),2015-03-11,15:01～16:00,0.0684,0.0616,0.0644,
江戸川 (Edogawa),2015-03-11,14:01～15:00,0.0690,0.0615,0.0647,
江戸川 (Edogawa),2015-03-11,13:01～14:00,0.0688,0.0620,0.0644,
江戸川 (Edogawa),2015-03-11,12:01～13:00,0.0684,0.0612,0.0646,
江戸川 (Edogawa),2015-03-11,11:01～12:00,0.0676,0.0605,0.0645,
江戸川 (Edogawa),2015-03-11,10:01～11:00,0.0671,0.0596,0.0639,
江戸川 (Edogawa),2015-03-11,09:01～10:00,0.0662,0.0607,0.0636,
江戸川 (Edogawa),2015-03-11,08:01～09:00,0.0667,0.0597,0.0633,
江戸川 (Edogawa),2015-03-11,07:01～08:00,0.0684,0.0597,0.0631,
江戸川 (Edogawa),2015-03-11,06:01～07:00,0.0682,0.0605,0.0635,
江戸川 (Edogawa),2015-03-11,05:01～06:00,0.0679,0.0589,0.0636,
江戸川 (Edogawa),2015-03-11,04:01～05:00,0.0674,0.0607,0.0638,
江戸川 (Edogawa),2015-03-11,03:01～04:00,0.0667,0.0602,0.0634,
江戸川 (Edogawa),2015-03-11,02:01～03:00,0.0671,0.0604,0.0640,
江戸川 (Edogawa),2015-03-11,01:01～02:00,0.0675,0.0594,0.0639,
江戸川 (Edogawa),2015-03-11,00:01～01:00,0.0677,0.0613,0.0641,
江戸川 (Edogawa),2015-03-10,23:01～24:00,0.0673,0.0614,0.0644,
江戸川 (Edogawa),2015-03-10,22:01～23:00,0.0676,0.0611,0.0644,
江戸川 (Edogawa),2015-03-10,21:01～22:00,0.0682,0.0613,0.0646,
江戸川 (Edogawa),2015-03-10,20:01～21:00,0.0690,0.0604,0.0648,
江戸川 (Edogawa),2015-03-10,19:01～20:00,0.0695,0.0625,0.0657,
江戸川 (Edogawa),2015-03-10,18:01～19:00,0.0744,0.0650,0.0690,
江戸川 (Edogawa),2015-03-10,17:01～18:00,0.0853,0.0699,0.0779,
江戸川 (Edogawa),2015-03-10,16:01～17:00,0.0808,0.0618,0.0698,
江戸川 (Edogawa),2015-03-10,15:01～16:00,0.0704,0.0603,0.0655,
江戸川 (Edogawa),2015-03-10,14:01～15:00,0.0712,0.0607,0.0657,
江戸川 (Edogawa),2015-03-10,13:01～14:00,0.0765,0.0673,0.0716,
江戸川 (Edogawa),2015-03-10,12:01～13:00,0.0874,0.0715,0.0788,
江戸川 (Edogawa),2015-03-10,11:01～12:00,0.0812,0.0568,0.0658,
江戸川 (Edogawa),2015-03-10,10:01～11:00,0.0643,0.0580,0.0614,
江戸川 (Edogawa),2015-03-10,09:01～10:00,0.0644,0.0573,0.0607,
江戸川 (Edogawa),2015-03-10,08:01～09:00,0.0635,0.0554,0.0604,
江戸川 (Edogawa),2015-03-10,07:01～08:00,0.0644,0.0574,0.0608,
江戸川 (Edogawa),2015-03-10,06:01～07:00,0.0644,0.0573,0.0606,
江戸川 (Edogawa),2015-03-10,05:01～06:00,0.0655,0.0573,0.0611,
江戸川 (Edogawa),2015-03-10,04:01～05:00,0.0662,0.0598,0.0628,
江戸川 (Edogawa),2015-03-10,03:01～04:00,0.0694,0.0615,0.0649,
江戸川 (Edogawa),2015-03-10,02:01～03:00,0.0695,0.0617,0.0659,
江戸川 (Edogawa),2015-03-10,01:01～02:00,0.0691,0.0618,0.0652,
江戸川 (Edogawa),2015-03-10,00:01～01:00,0.0708,0.0633,0.0666,
江戸川 (Edogawa),2015-03-09,23:01～24:00,0.0718,0.0623,0.0662,
江戸川 (Edogawa),2015-03-09,22:01～23:00,0.0684,0.0600,0.0634,
江戸川 (Edogawa),2015-03-09,21:01～22:00,0.0691,0.0606,0.0648,
江戸川 (Edogawa),2015-03-09,20:01～21:00,0.0745,0.0660,0.0708,
江戸川 (Edogawa),2015-03-09,19:01～20:00,0.0742,0.0642,0.0694,
江戸川 (Edogawa),2015-03-09,18:01～19:00,0.0706,0.0640,0.0672,
江戸川 (Edogawa),2015-03-09,17:01～18:00,0.0726,0.0645,0.0674,
江戸川 (Edogawa),2015-03-09,16:01～17:00,0.0701,0.0643,0.0674,
江戸川 (Edogawa),2015-03-09,15:01～16:00,0.0667,0.0610,0.0639,
江戸川 (Edogawa),2015-03-09,14:01～15:00,0.0659,0.0585,0.0629,
江戸川 (Edogawa),2015-03-09,13:01～14:00,0.0665,0.0588,0.0631,
江戸川 (Edogawa),2015-03-09,12:01～13:00,0.0658,0.0589,0.0633,
江戸川 (Edogawa),2015-03-09,11:01～12:00,0.0657,0.0588,0.0632,
江戸川 (Edogawa),2015-03-09,10:01～11:00,0.0682,0.0609,0.0630,
江戸川 (Edogawa),2015-03-09,09:01～10:00,0.0651,0.0573,0.0609,
江戸川 (Edogawa),2015-03-09,08:01～09:00,0.0651,0.0565,0.0607,
江戸川 (Edogawa),2015-03-09,07:01～08:00,0.0651,0.0560,0.0608,
江戸川 (Edogawa),2015-03-09,06:01～07:00,0.0636,0.0565,0.0609,
江戸川 (Edogawa),2015-03-09,05:01～06:00,0.0646,0.0581,0.0608,
江戸川 (Edogawa),2015-03-09,04:01～05:00,0.0639,0.0574,0.0606,
江戸川 (Edogawa),2015-03-09,03:01～04:00,0.0644,0.0575,0.0607,
江戸川 (Edogawa),2015-03-09,02:01～03:00,0.0637,0.0578,0.0608,
江戸川 (Edogawa),2015-03-09,01:01～02:00,0.0635,0.0575,0.0603,
江戸川 (Edogawa),2015-03-09,00:01～01:00,0.0634,0.0569,0.0603,
